Tracking 35274 objects as of 12-Sep-2026
HD Live streaming from Space Station
objects crossing your sky now

COSMOS 1742 DEB


COSMOS 1742 DEB is no longer on orbit


NORAD ID: 16740
Int'l Code: 1986-033D
Launch date: May 14, 1986
Source: Commonwealth of Independent States (former USSR) (CIS)
Launch site: PLESETSK MISSILE AND SPACE COMPLEX (PKMTR)
Decay date: 1986-12-29

Note: This is SATELLITE DEBRIS
Your satellite tracking list
Your tracking list is empty




NASA's NSSDC Master Catalog

Two Line Element Set (TLE):
1 16740U 86033D   86363.10064611  .07565708 +83957-5 +70928-3 0  9997
2 16740 072.8382 229.2811 0007203 114.4946 247.0609 16.38463632035992
Source of the keplerian elements: AFSPC